STARLINK-2279

Last updated on Sat Apr 24 2021 00:02:02 GMT+0000 (Coordinated Universal Time)

1 47991U 21024Q 21113.25001157 .00081449 00000-0 57900-3 0 9998 2 47991 53.0489 55.6989 0001167 77.9731 74.8089 15.73201353 1829

Satellite not in orbit